Location: Kott?ru
(16.6209°N, 80.6208°E)
Time: 14:28:33
(UTC+00:00)

Cosmos 2227 - Pass Details

Date: 18 September 2020
Orbit: 836 x 859 km, 71.0° (Epoch: 30 October)

Event Time Altitude Azimuth Distance (km) Brightness Sun altitude
Rises 23:34:48 0° 344° (NNW) 3,385 7.2 -13.1°
Reaches altitude 10° 23:37:14 10° 345° (NNW) 2,447 6.5 -12.5°
Maximum altitude 23:42:51 85° 74° (ENE) 841 4.2 -11.2°
Drops below altitude 10° 23:48:27 10° 162° (SSE) 2,439 6.8 -9.9°
Sets 23:50:53 0° 163° (SSE) 3,373 7.5 -9.3°
